Location: Sungai Buloh
(3.1000°N, 113.0000°E)
Time: 16:09:12
(UTC+00:00)

ARIANE 5 R/B - Pass Details

Date: 12 January 2026
Orbit: 642 x 35818 km, 4.6° (Epoch: 11 February)

Event Time Altitude Azimuth Distance (km) Brightness Sun altitude
Exits shadow 21:45:07 - 272° (W) 10,990 8.3 -13.1°
Reaches altitude 10° 21:49:09 10° 272° (W) 9,605 8.0 -12.1°
Maximum altitude 22:10:19 69° 190° (S) 1,400 4.4 -7.2°
Drops below altitude 10° 22:14:53 10° 106° (ESE) 2,339 7.3 -6.2°
Sets 22:16:26 0° 103° (ESE) 3,050 8.5 -5.8°
